Showing default

COSMOS 2586, 63289

Orbit data source: Space-Track

COSMOS 2586, 63289 is a payload satellite owned by VVKO VKS (CIS) in LEO that was launched on Sun, 16 Mar 2025 UTC via an ANGARA-1.2 launch vehicle from the Plesetsk Missile And Space Complex (PKMTR). Payload-class satellites include a variety of spacecraft equipped with specific instruments for various scientific and technological missions. These include communications satellites like Starlink; space stations such as the ISS; scientific satellites like the Hubble; Earth observation satellites from companies like Planet Labs, Umbra, and HawkEye 360; GPS; miniature CubeSats for education and research; and military/defense satellites.

Loading next visibility...
Identifier
63289, 2025-054B
Orbit
LEO
Country
Flag of CISCIS
Related business
Manufacturer
Resehetnev ISS
Mission
Operational Defense Communications
Bus & Motor
STRELA-3M, Unknown motor
Mass
280 kg wet, 280 kg dry
Launch date (UTC)
2025-03-16 (9 months ago)
Launch vehicle
ANGARA-1.2
Launch site
Plesetsk Missile And Space Complex (PKMTR)
Object type
Payload
Rocket body
Debris
Shape & HBR
Cyl + 1 Ant, 22.5 m
Radar Cross Section
1.583 m², Large (>1 m²)

Expand to show TLE details & history
Last TLE update: 4 days ago

TLE from 4 days ago
0 COSMOS 2586
1 63289U 25054B   25339.19723116  .00000075  00000-0  46694-3 0  9990
2 63289  82.4925 199.2841 0021289  86.1463 274.2050 12.42904837 32751
Epoch: 2025-12-05T04:44Z
TLE epoch observation values (Epoch: 2025-12-05T04:44:00.772Z)
Latitude
-0.00003°
Longitude
54.0381°
Altitude
1,495.819 km
Speed
7.117 km/s
True Right ascension
13h 17m 08s
True Declination
0° 00' 00"
Sunlit
Object was in daylight at epoch
Visualization orbit readout
Latitude
Unknown
Longitude
Unknown
Altitude
Unknown
Speed
Unknown
Apparent Right ascension
Unknown
Apparent Declination
Unknown
Sunlit
N/A
Visualization observer readout
Local Sidereal Time
22:42:46
Azimuth
Unknown
Elevation
Unknown
Doppler factor
Unknown
Orbital elements
Apogee altitude
1,508.419 km
Perigee altitude
1,474.911 km
Semi-major axis
7,869.802 km
Eccentricity
0.00213
Inclination
82.4925°
RAAN
199.2841°
Arg. of periapsis
86.1463°
True anomaly
273.96166°
Mean anomaly
274.205°
Eccentric anomaly
274.08333°
Mean motion
3.10883 °/min
Orbital period
115.8 mins
BSTAR
0.00046694
Loading maneuver chart data...
Computing Atmospheric mass density...
Loading historical data...
Loading historical data...
Loading historical data...
Loading historical data...
Loading historical data...
Loading historical data...
Loading historical data...
Other satellites on launch #54 in the year 2025 (2025-03-16 UTC)

Documentation

Showing up to 5 results
|